TimeMST,TemperatureF,Dew PointF,Humidity,Sea Level PressureIn,VisibilityMPH,Wind Direction,Wind SpeedMPH,Gust SpeedMPH,PrecipitationIn,Events,Conditions,WindDirDegrees,DateUTC
12:53 AM,45.0,21.9,40,30.08,10.0,Calm,Calm,-,N/A,,Clear,0,2012-11-06 07:53:00
1:53 AM,48.9,24.1,38,30.06,10.0,WSW,4.6,-,N/A,,Clear,240,2012-11-06 08:53:00
2:53 AM,45.0,23.0,42,30.07,10.0,WNW,10.4,-,N/A,,Clear,290,2012-11-06 09:53:00
3:53 AM,45.0,24.1,44,30.07,10.0,NW,10.4,-,N/A,,Clear,310,2012-11-06 10:53:00
4:53 AM,42.1,23.0,47,30.10,10.0,West,9.2,-,N/A,,Clear,280,2012-11-06 11:53:00
5:53 AM,44.1,24.1,45,30.13,10.0,West,6.9,-,N/A,,Clear,280,2012-11-06 12:53:00
6:53 AM,45.0,24.1,44,30.15,10.0,West,8.1,-,N/A,,Clear,270,2012-11-06 13:53:00
7:53 AM,48.9,24.1,38,30.17,10.0,West,5.8,-,N/A,,Clear,270,2012-11-06 14:53:00
8:53 AM,57.9,25.0,28,30.15,10.0,NW,3.5,-,N/A,,Clear,310,2012-11-06 15:53:00
9:53 AM,64.9,25.0,22,30.13,10.0,Variable,5.8,-,N/A,,Clear,0,2012-11-06 16:53:00
10:53 AM,69.1,25.0,19,30.12,10.0,Variable,4.6,-,N/A,,Clear,0,2012-11-06 17:53:00
11:53 AM,72.0,25.0,17,30.09,10.0,East,8.1,-,N/A,,Clear,80,2012-11-06 18:53:00
12:53 PM,75.9,26.1,16,30.07,10.0,SE,10.4,-,N/A,,Clear,130,2012-11-06 19:53:00
1:53 PM,75.9,25.0,15,30.04,10.0,ESE,9.2,-,N/A,,Clear,120,2012-11-06 20:53:00
2:53 PM,77.0,25.0,15,30.05,10.0,ENE,8.1,-,N/A,,Clear,70,2012-11-06 21:53:00
3:53 PM,75.9,27.0,16,30.05,10.0,East,9.2,-,N/A,,Clear,90,2012-11-06 22:53:00
4:53 PM,70.0,27.0,20,30.08,10.0,East,10.4,-,N/A,,Clear,90,2012-11-06 23:53:00
5:53 PM,61.0,26.1,26,30.12,10.0,North,-9999.0,-,N/A,,Clear,0,2012-11-07 00:53:00
6:53 PM,57.9,27.0,31,30.13,10.0,ESE,4.6,-,N/A,,Clear,110,2012-11-07 01:53:00
7:53 PM,55.9,27.0,33,30.13,10.0,Calm,Calm,-,N/A,,Clear,0,2012-11-07 02:53:00
8:53 PM,53.1,27.0,37,30.12,10.0,ENE,5.8,-,N/A,,Clear,70,2012-11-07 03:53:00
9:53 PM,50.0,27.0,41,30.12,10.0,ENE,6.9,-,N/A,,Clear,70,2012-11-07 04:53:00
10:53 PM,48.9,27.0,43,30.12,10.0,Calm,Calm,-,N/A,,Clear,0,2012-11-07 05:53:00
11:53 PM,46.9,27.0,46,30.12,10.0,North,3.5,-,N/A,,Clear,350,2012-11-07 06:53:00